Showing default

FORMOSAT7-3/COSMIC2-3, 44343

Orbit data source: Space-Track

FORMOSAT7-3/COSMIC2-3, 44343 is a payload satellite owned by NSPO (TW) in LEO that was launched on Tue, 25 Jun 2019 UTC via an FALCON HEAVY launch vehicle from the Air Force Eastern Test Range (AFETR). Payload-class satellites include a variety of spacecraft equipped with specific instruments for various scientific and technological missions. These include communications satellites like Starlink; space stations such as the ISS; scientific satellites like the Hubble; Earth observation satellites from companies like Planet Labs, Umbra, and HawkEye 360; GPS; miniature CubeSats for education and research; and military/defense satellites.

Not visible in the next 10 days
Identifier
44343, 2019-036E
Orbit
LEO
Country
Flag of TWTW / TWN
Related business
Manufacturer
SSTL (Astrium)
Mission
Operational Civil Weather
Bus & Motor
SSTL-100, Unknown motor
Mass
278 kg wet, 278 kg dry
Launch date (UTC)
2019-06-25 (6 years ago)
Launch vehicle
FALCON HEAVY
Launch site
Air Force Eastern Test Range (AFETR)
Object type
Payload
Rocket body
Debris
Shape & HBR
Box + 1 Pan, 1.5 m
Radar Cross Section
2.189 m², Large (>1 m²)

Expand to show TLE details & history
Last TLE update: 19 hours ago

TLE from 19 hours ago
0 FORMOSAT7-3/COSMIC2-3
1 44343U 19036E   25259.38458408  .00005342  00000-0  33011-3 0  9995
2 44343  23.9986 258.8763 0000606 241.8492 118.1950 15.06522175341858
Epoch: 2025-09-16T09:13Z
TLE epoch observation values (Epoch: 2025-09-16T09:13:48.064Z)
Latitude
-0°
Longitude
124.85037°
Altitude
544.915 km
Speed
7.592 km/s
True Right ascension
17h 15m 30s
True Declination
0° 00' 00"
Sunlit
Object was in daylight at epoch
Visualization orbit readout
Latitude
Unknown
Longitude
Unknown
Altitude
Unknown
Speed
Unknown
Apparent Right ascension
Unknown
Apparent Declination
Unknown
Sunlit
N/A
Visualization observer readout
Local Sidereal Time
20:50:01
Azimuth
Unknown
Elevation
Unknown
Doppler factor
Unknown
Orbital elements
Apogee altitude
552.046 km
Perigee altitude
551.206 km
Semi-major axis
6,929.763 km
Eccentricity
0.00006
Inclination
23.9986°
RAAN
258.8763°
Arg. of periapsis
241.8492°
True anomaly
118.20112°
Mean anomaly
118.195°
Eccentric anomaly
118.19806°
Mean motion
3.76241 °/min
Orbital period
95.68 mins
BSTAR
0.00033011
Loading maneuver chart data...
Computing Atmospheric mass density...
Loading historical data...
Loading historical data...
Loading historical data...
Loading historical data...
Loading historical data...
Loading historical data...
Loading historical data...

Documentation

Showing up to 5 results
|